Location: Unspecified
(54.6100°N, 0.0000°E)
Time: 00:23:46
(UTC+00:00)

CZ-4 DEB - Visible Passes

Search period start: 04 April 2026 00:00
Search period end: 14 April 2026 00:00
Orbit: 663 x 760 km, 98.5° (Epoch: 27 March)

Date Brightness Start Highest point End Pass type
(mag) Time Alt. Az. Time Alt. Az. Time Alt. Az.
4 Apr ? 19:32:27 10° ESE 19:36:32 29° ENE 19:40:44 10° N visible
4 Apr ? 21:11:23 23° S 21:14:11 54° W 21:19:00 10° NNW visible
5 Apr ? 20:18:10 18° SE 20:21:40 61° ENE 20:26:30 10° N visible
5 Apr ? 21:57:14 15° SW 21:59:57 24° W 22:03:56 10° NW visible
6 Apr ? 19:25:33 10° ESE 19:29:31 26° ENE 19:33:35 10° N visible
6 Apr ? 21:04:00 22° S 21:07:04 62° WSW 21:11:58 10° NNW visible
6 Apr ? 22:44:56 10° W 22:46:02 11° W 22:47:09 10° WNW visible
7 Apr ? 20:10:47 15° SE 20:14:35 54° ENE 20:19:24 10° N visible
7 Apr ? 21:49:49 16° SW 21:52:47 28° W 21:56:59 10° NW visible
8 Apr ? 20:56:35 20° S 20:59:57 71° WSW 21:04:54 10° NNW visible
8 Apr ? 22:36:45 10° WSW 22:38:48 12° W 22:40:53 10° WNW visible
9 Apr ? 20:03:22 13° SE 20:07:31 48° ENE 20:12:17 10° N visible
9 Apr ? 21:42:25 16° SSW 21:45:36 31° W 21:50:01 10° NNW visible
10 Apr ? 20:49:11 18° SSE 20:52:49 80° WSW 20:57:49 10° NNW visible
10 Apr ? 22:28:55 10° WSW 22:31:34 14° W 22:34:16 10° NW visible
11 Apr ? 19:55:58 10° SE 20:00:27 42° ENE 20:05:09 10° N visible
11 Apr ? 21:35:01 16° SSW 21:38:26 36° W 21:43:01 10° NNW visible
12 Apr ? 20:41:47 16° SSE 20:45:42 90° E 20:50:44 10° NNW visible
12 Apr ? 22:21:14 10° SW 22:24:20 17° W 22:27:30 10° NW visible
13 Apr ? 19:48:53 10° SE 19:53:23 38° ENE 19:57:59 10° N visible
13 Apr ? 21:27:37 15° SSW 21:31:15 41° W 21:35:59 10° NNW visible
